Terminal Aerodrome Forecast
Issued by NWS

Home | Current Version | Previous Version | Text Only | Print | Product List | Glossary On
Versions: 1 2 3 4 5 6 7 8 9 10 11 12
000
FTUS42 KTAE 201700
TAFABY
TAF
KABY 201720Z 2018/2118 26005KT P6SM FEW250
     FM210000 00000KT P6SM FEW250
     FM211400 05005KT P6SM FEW250=

USA.gov is the U.S. government's official web portal to all federal, state and local government web resources and services.